DW3072 Weather Reports


Display with metric or nautical units.
time (UTC)temp
F
wind
direction
speed
MPH
gust
MPH
rain 1hr
in
rain 24hr
in
rain mn
in
humidity
%
barometer
mb
20260509033528 49 284 0.0 0.0 0.00 0.04 0.04 84 1011.8
20260509032032 49 284 0.0 0.0 0.00 0.04 0.04 85 1011.8
20260509030526 49 284 0.0 2.0 0.00 0.04 0.04 84 1011.7
20260509025042 50 284 0.0 0.0 0.00 0.04 0.04 82 1011.7
20260509023541 50 284 0.0 0.0 0.00 0.04 0.04 81 1011.8
20260509022040 51 284 0.0 0.0 0.00 0.04 0.04 80 1011.8
20260509020538 52 284 1.0 2.0 0.00 0.04 0.04 79 1011.7
20260509015034 53 307 0.0 0.0 0.00 0.04 0.04 78 1011.7
20260509013529 53 307 0.0 0.0 0.00 0.04 0.04 77 1011.5
20260509012042 54 307 0.0 0.0 0.00 0.04 0.04 78 1011.2
20260509010530 54 307 0.0 0.0 0.00 0.04 0.04 77 1011.5
20260509005039 55 307 0.0 0.0 0.00 0.04 0.04 75 1011.0
20260509003637 55 307 0.0 0.0 0.00 0.04 0.04 74 1010.7
20260509002042 55 307 0.0 0.0 0.00 0.04 0.04 71 1010.4
20260509000540 56 274 0.0 2.0 0.00 0.04 0.04 72 1010.2
20260508235041 57 335 0.0 0.0 0.00 0.04 0.04 68 1010.0
20260508233607 57 335 0.0 0.0 0.00 0.04 0.04 69 1009.9
20260508232106 58 335 0.0 0.0 0.00 0.04 0.04 66 1010.0
20260508230602 59 334 0.0 1.0 0.00 0.04 0.04 61 1010.0
20260508225032 60 263 0.0 2.0 0.00 0.04 0.04 59 1010.0
20260508223601 60 278 0.0 0.0 0.00 0.04 0.04 57 1009.9
20260508222033 61 94 1.0 3.0 0.00 0.04 0.04 53 1009.7
20260508220534 61 219 0.0 6.0 0.00 0.04 0.04 56 1009.9
20260508215034 61 181 2.0 8.0 0.00 0.04 0.04 53 1009.7
20260508213533 61 220 1.0 5.0 0.00 0.04 0.04 55 1010.0
20260508212047 60 214 1.0 6.0 0.00 0.04 0.04 56 1009.9
20260508210546 60 234 2.0 7.0 0.00 0.04 0.04 58 1009.9
20260508205102 59 293 1.0 6.0 0.00 0.04 0.04 57 1010.0
20260508203539 59 287 3.0 7.0 0.00 0.04 0.04 59 1010.1
20260508202029 58 255 3.0 10.0 0.00 0.04 0.04 60 1010.4
20260508200529 57 332 1.0 5.0 0.00 0.04 0.04 65 1010.4
20260508195058 58 185 2.0 8.0 0.00 0.04 0.04 66 1010.9
20260508193533 58 21 1.0 5.0 0.00 0.04 0.04 57 1010.7
20260508192034 58 160 0.0 4.0 0.00 0.04 0.04 61 1010.7
20260508190537 58 274 1.0 4.0 0.00 0.04 0.04 57 1010.8
20260508185053 59 294 3.0 6.0 0.00 0.04 0.04 52 1010.7
20260508183528 59 111 1.0 12.0 0.00 0.04 0.04 50 1010.6
20260508182046 60 214 2.0 7.0 0.00 0.04 0.04 50 1010.7
20260508180534 60 224 4.0 11.0 0.00 0.04 0.04 48 1010.4
20260508175035 60 172 2.0 6.0 0.00 0.04 0.04 51 1010.5
20260508173533 60 273 3.0 16.0 0.00 0.04 0.04 52 1010.4
20260508172026 59 260 3.0 10.0 0.00 0.04 0.04 55 1010.7
20260508170526 58 232 2.0 11.0 0.00 0.04 0.04 52 1010.8
20260508165041 58 188 4.0 8.0 0.00 0.04 0.04 53 1011.2
20260508163608 58 257 3.0 10.0 0.00 0.04 0.04 54 1011.1
20260508162046 58 280 4.0 11.0 0.00 0.04 0.04 53 1011.4
20260508160544 58 334 2.0 12.0 0.00 0.04 0.04 53 1011.5
20260508155041 57 273 5.0 12.0 0.00 0.04 0.04 55 1011.7
20260508153538 56 225 5.0 9.0 0.00 0.04 0.04 61 1011.8
20260508152036 54 36 5.0 13.0 0.00 0.04 0.04 57 1012.2
20260508150534 53 106 2.0 5.0 0.00 0.04 0.04 63 1012.0
20260508145047 52 7 1.0 7.0 0.00 0.04 0.04 62 1012.4
20260508143535 52 255 4.0 8.0 0.00 0.04 0.04 64 1012.5
20260508142041 52 234 1.0 5.0 0.00 0.04 0.04 65 1012.2
20260508140542 53 236 1.0 5.0 0.00 0.04 0.04 67 1012.2
20260508135034 53 61 3.0 6.0 0.00 0.04 0.04 71 1012.1
20260508133605 52 359 0.0 4.0 0.00 0.04 0.04 74 1012.1
20260508132041 52 80 1.0 4.0 0.00 0.04 0.04 73 1012.2
20260508130540 51 103 2.0 3.0 0.00 0.04 0.04 76 1012.3
20260508125035 49 110 2.0 3.0 0.00 0.04 0.04 86 1012.1
20260508123533 47 105 1.0 2.0 0.00 0.04 0.04 91 1012.3
20260508122026 45 66 0.0 1.0 0.00 0.04 0.04 93 1012.4
20260508120540 44 15 0.0 3.0 0.00 0.04 0.04 95 1012.3
20260508115034 43 276 0.0 3.0 0.00 0.04 0.04 95 1012.3
20260508113531 42 40 0.0 1.0 0.00 0.04 0.04 95 1012.3
20260508112052 40 1 0.0 0.0 0.00 0.04 0.04 94 1012.4
20260508110553 39 259 0.0 0.0 0.00 0.04 0.04 94 1012.3
20260508105049 38 259 0.0 0.0 0.00 0.04 0.04 92 1012.2
20260508103549 38 259 0.0 0.0 0.00 0.04 0.04 92 1012.0
20260508102046 38 259 0.0 0.0 0.00 0.04 0.04 91 1012.0
20260508100545 38 259 0.0 0.0 0.00 0.04 0.04 91 1011.7
20260508095038 39 259 0.0 0.0 0.00 0.04 0.04 90 1011.7
20260508093534 39 259 0.0 0.0 0.00 0.04 0.04 90 1011.7
20260508092048 40 259 0.0 0.0 0.00 0.04 0.04 90 1011.6
20260508090544 40 259 0.0 0.0 0.00 0.04 0.04 90 1011.1
20260508085039 40 259 0.0 0.0 0.00 0.04 0.04 89 1011.3
20260508083537 41 259 0.0 0.0 0.00 0.04 0.04 89 1011.3
20260508082036 42 259 0.0 0.0 0.00 0.04 0.04 88 1011.1
20260508080530 42 259 0.0 0.0 0.00 0.04 0.04 88 1011.0
20260508075046 43 259 0.0 0.0 0.00 0.05 0.04 88 1010.9
20260508073544 44 259 0.0 0.0 0.00 0.05 0.04 88 1010.8
20260508072042 45 259 0.0 0.0 0.02 0.05 0.04 88 1010.8
20260508070542 45 259 0.0 3.0 0.03 0.05 0.04 88 1010.8
20260508065037 46 67 0.0 0.0 0.03 0.07 0.04 86 1010.4
20260508063601 46 67 0.0 3.0 0.03 0.07 0.04 86 1010.6
20260508062037 47 120 1.0 2.0 0.01 0.05 0.02 83 1011.2
20260508060540 46 155 0.0 2.0 0.00 0.04 0.01 84 1011.0
20260508055027 46 101 0.0 0.0 0.00 0.06 0.01 85 1010.6
20260508053554 46 101 0.0 1.0 0.01 0.06 0.01 86 1010.6
20260508052048 47 101 1.0 2.0 0.01 0.06 0.01 84 1010.4
20260508050547 48 131 0.0 0.0 0.01 0.06 0.01 83 1009.9
20260508045037 49 131 0.0 1.0 0.01 0.06 0.01 82 1009.8
20260508043536 49 151 0.0 3.0 0.00 0.05 0.00 75 1010.2
20260508042031 49 11 0.0 0.0 0.00 0.05 0.00 81 1010.1
20260508040545 48 11 0.0 0.0 0.00 0.05 0.00 80 1009.1
20260508035051 48 11 0.0 0.0 0.00 0.05 0.05 80 1008.5